| time (UTC) | temp F | wind direction | speed MPH | gust MPH | rain 1hr in | rain 24hr in | rain mn in | humidity % | barometer mb |
| 20260902174039 | 54 | 257 | 2.0 | 4.0 | 0.00 | 0.00 | 0.00 | 96 | 1008.9 |
| 20260902173020 | 54 | 302 | 1.0 | 4.0 | 0.00 | 0.00 | 0.00 | 96 | 1008.7 |
| 20260902172028 | 54 | 0 | 1.0 | 3.0 | 0.00 | 0.00 | 0.00 | 96 | 1008.9 |
| 20260902171016 | 54 | 8 | 2.0 | 5.0 | 0.00 | 0.00 | 0.00 | 96 | 1009.0 |
| 20260902170031 | 54 | 2 | 2.0 | 5.0 | 0.00 | 0.00 | 0.00 | 96 | 1009.1 |
| 20260902165033 | 54 | 7 | 3.0 | 6.0 | 0.00 | 0.00 | 0.00 | 96 | 1009.7 |
| 20260902164020 | 54 | 1 | 2.0 | 6.0 | 0.00 | 0.00 | 0.00 | 95 | 1010.1 |
| 20260902163030 | 54 | 354 | 2.0 | 5.0 | 0.00 | 0.00 | 0.00 | 95 | 1010.3 |
| 20260902162017 | 54 | 5 | 3.0 | 6.0 | 0.00 | 0.00 | 0.00 | 95 | 1010.4 |
| 20260902161032 | 54 | 7 | 2.0 | 4.0 | 0.00 | 0.00 | 0.00 | 95 | 1010.4 |
| 20260902160033 | 54 | 335 | 2.0 | 4.0 | 0.00 | 0.00 | 0.00 | 94 | 1010.9 |
| 20260902155022 | 54 | 12 | 3.0 | 5.0 | 0.00 | 0.00 | 0.00 | 94 | 1010.7 |
| 20260902154029 | 54 | 13 | 2.0 | 4.0 | 0.00 | 0.00 | 0.00 | 94 | 1011.2 |
| 20260902153017 | 54 | 350 | 3.0 | 6.0 | 0.00 | 0.00 | 0.00 | 94 | 1011.4 |
| 20260902152024 | 54 | 360 | 1.0 | 4.0 | 0.00 | 0.00 | 0.00 | 94 | 1011.1 |
| 20260902151030 | 54 | 356 | 1.0 | 4.0 | 0.00 | 0.00 | 0.00 | 94 | 1010.7 |
| 20260902150016 | 55 | 325 | 1.0 | 2.0 | 0.00 | 0.00 | 0.00 | 93 | 1011.0 |
| 20260902145023 | 55 | 8 | 1.0 | 2.0 | 0.00 | 0.00 | 0.00 | 93 | 1010.9 |
| 20260902144039 | 55 | 335 | 1.0 | 3.0 | 0.00 | 0.00 | 0.00 | 93 | 1011.4 |
| 20260902143036 | 55 | 336 | 1.0 | 3.0 | 0.00 | 0.00 | 0.00 | 92 | 1011.4 |
| 20260902142022 | 55 | 27 | 1.0 | 4.0 | 0.00 | 0.00 | 0.00 | 92 | 1011.9 |
| 20260902141028 | 55 | 356 | 1.0 | 3.0 | 0.00 | 0.00 | 0.00 | 91 | 1012.2 |
| 20260902140033 | 55 | 336 | 1.0 | 4.0 | 0.00 | 0.00 | 0.00 | 91 | 1012.2 |
| 20260902135019 | 56 | 352 | 2.0 | 5.0 | 0.00 | 0.00 | 0.00 | 89 | 1012.6 |
| 20260902134024 | 56 | 323 | 2.0 | 5.0 | 0.00 | 0.00 | 0.00 | 88 | 1012.9 |
| 20260902133030 | 57 | 286 | 4.0 | 8.0 | 0.00 | 0.00 | 0.00 | 86 | 1013.1 |
| 20260902132036 | 57 | 317 | 5.0 | 13.0 | 0.00 | 0.00 | 0.00 | 85 | 1013.3 |
| 20260902131034 | 57 | 325 | 4.0 | 8.0 | 0.00 | 0.00 | 0.00 | 86 | 1013.2 |
| 20260902130027 | 57 | 328 | 3.0 | 6.0 | 0.00 | 0.00 | 0.00 | 84 | 1013.2 |
| 20260902125021 | 58 | 305 | 4.0 | 6.0 | 0.00 | 0.00 | 0.00 | 81 | 1013.2 |
| 20260902123522 | 56 | 309 | 3.0 | 5.0 | 0.00 | 0.00 | 0.00 | 83 | 1013.0 |
| 20260902123036 | 55 | 297 | 1.0 | 3.0 | 0.00 | 0.00 | 0.00 | 85 | 1013.0 |
| 20260902120530 | 56 | 67 | 0.0 | 2.0 | 0.00 | 0.00 | 0.00 | 83 | 1013.2 |
| 20260902115531 | 57 | 151 | 0.0 | 1.0 | 0.00 | 0.00 | 0.00 | 82 | 1013.0 |
| 20260902114530 | 57 | 340 | 1.0 | 2.0 | 0.00 | 0.00 | 0.00 | 81 | 1013.1 |
| 20260902113519 | 57 | 138 | 1.0 | 1.0 | 0.00 | 0.00 | 0.00 | 81 | 1013.3 |
| 20260902113501 | 57 | 214 | 0.0 | 2.0 | 0.00 | 0.00 | 0.00 | 81 | 1013.3 |
| 20260902101048 | 63 | 295 | 5.0 | 7.0 | 0.00 | 0.00 | 0.00 | 75 | 1013.8 |
| 20260902100058 | 63 | 311 | 3.0 | 5.0 | 0.00 | 0.00 | 0.00 | 74 | 1013.5 |
| 20260902000537 | 63 | 314 | 6.0 | 12.0 | 0.00 | 0.00 | 0.00 | 67 | 1016.4 |
| 20260901234527 | 63 | 315 | 5.0 | 13.0 | 0.00 | 0.00 | 0.00 | 69 | 1016.2 |
| 20260901233524 | 62 | 315 | 5.0 | 10.0 | 0.00 | 0.00 | 0.00 | 70 | 1016.2 |
| 20260901231519 | 61 | 321 | 3.0 | 10.0 | 0.00 | 0.00 | 0.00 | 71 | 1016.0 |
| 20260901231030 | 61 | 337 | 6.0 | 13.0 | 0.00 | 0.00 | 0.00 | 71 | 1016.1 |
| 20260901225519 | 61 | 307 | 6.0 | 13.0 | 0.00 | 0.00 | 0.00 | 71 | 1016.2 |
| 20260901224526 | 60 | 304 | 9.0 | 10.0 | 0.00 | 0.00 | 0.00 | 72 | 1016.4 |
| 20260901224503 | 60 | 340 | 5.0 | 11.0 | 0.00 | 0.00 | 0.00 | 72 | 1016.4 |
| 20260901223531 | 60 | 331 | 3.0 | 4.0 | 0.00 | 0.00 | 0.00 | 73 | 1016.3 |
| 20260901223021 | 60 | 318 | 6.0 | 10.0 | 0.00 | 0.00 | 0.00 | 72 | 1016.3 |
| 20260901221530 | 60 | 308 | 7.0 | 13.0 | 0.00 | 0.00 | 0.00 | 73 | 1016.2 |
| 20260901220024 | 59 | 312 | 4.0 | 9.0 | 0.00 | 0.00 | 0.00 | 74 | 1016.1 |
| 20260901215034 | 60 | 316 | 4.0 | 13.0 | 0.00 | 0.00 | 0.00 | 74 | 1015.8 |
| 20260901214029 | 59 | 326 | 5.0 | 11.0 | 0.00 | 0.00 | 0.00 | 74 | 1015.7 |
| 20260901213030 | 59 | 307 | 4.0 | 11.0 | 0.00 | 0.00 | 0.00 | 74 | 1015.6 |
| 20260901212035 | 59 | 310 | 7.0 | 15.0 | 0.00 | 0.00 | 0.00 | 76 | 1015.4 |
| 20260901211018 | 58 | 305 | 5.0 | 12.0 | 0.00 | 0.00 | 0.00 | 78 | 1015.4 |
| 20260901210022 | 58 | 318 | 8.0 | 13.0 | 0.00 | 0.00 | 0.00 | 78 | 1015.4 |
| 20260901205034 | 57 | 314 | 6.0 | 13.0 | 0.00 | 0.00 | 0.00 | 79 | 1015.2 |
| 20260901204031 | 57 | 304 | 5.0 | 8.0 | 0.00 | 0.00 | 0.00 | 81 | 1015.3 |
| 20260901203034 | 56 | 312 | 4.0 | 8.0 | 0.00 | 0.00 | 0.00 | 83 | 1015.1 |
| 20260901202036 | 56 | 141 | 1.0 | 3.0 | 0.00 | 0.00 | 0.00 | 82 | 1015.2 |
| 20260901201019 | 57 | 7 | 1.0 | 3.0 | 0.00 | 0.00 | 0.00 | 81 | 1015.0 |
| 20260901200023 | 57 | 332 | 2.0 | 5.0 | 0.00 | 0.00 | 0.00 | 80 | 1015.0 |
| 20260901195026 | 58 | 317 | 4.0 | 7.0 | 0.00 | 0.00 | 0.00 | 80 | 1014.9 |
| 20260901194029 | 58 | 302 | 4.0 | 6.0 | 0.00 | 0.00 | 0.00 | 80 | 1014.8 |
| 20260901193033 | 58 | 308 | 3.0 | 8.0 | 0.00 | 0.00 | 0.00 | 80 | 1014.7 |
| 20260901192037 | 57 | 297 | 3.0 | 8.0 | 0.00 | 0.00 | 0.00 | 80 | 1014.7 |
| 20260901191027 | 58 | 314 | 4.0 | 11.0 | 0.00 | 0.00 | 0.00 | 80 | 1014.6 |
| 20260901190024 | 57 | 326 | 3.0 | 7.0 | 0.00 | 0.00 | 0.00 | 81 | 1014.7 |
| 20260901185027 | 57 | 330 | 2.0 | 9.0 | 0.00 | 0.00 | 0.00 | 81 | 1014.6 |
| 20260901184032 | 57 | 354 | 3.0 | 7.0 | 0.00 | 0.00 | 0.00 | 81 | 1014.5 |
| 20260901183035 | 57 | 16 | 3.0 | 7.0 | 0.00 | 0.00 | 0.00 | 81 | 1014.5 |
| 20260901182018 | 57 | 344 | 2.0 | 6.0 | 0.00 | 0.00 | 0.00 | 83 | 1015.0 |
| 20260901181035 | 57 | 358 | 3.0 | 7.0 | 0.00 | 0.00 | 0.00 | 84 | 1015.2 |
| 20260901180023 | 57 | 23 | 3.0 | 8.0 | 0.00 | 0.00 | 0.00 | 82 | 1015.1 |
| 20260901175030 | 57 | 5 | 3.0 | 6.0 | 0.00 | 0.00 | 0.00 | 82 | 1014.9 |